Погода в Пяндже

Таджикистан     37°14′08″N   69°05′58″E
темп.,
°C
ветер,
м/с
пор.,
м/с
влажн.,
%
обл.,
%
осадки,
мм/ч
давл.,
гПа
погр.,
м
13 апреля, вт
вт1323:00+21с3332100 0.1 101632
02:00+17св4468100 0.6 101972
05:00+16вюв3581100 1.9 1020118
08:00+16вюв2376100 0.0 1021204
11:00+20в235832 0.0 1021643
14:00+25в22394 0.0 10181527
17:00+25в223910 0.0 10161553
20:00+19св225520 0.0 101722
14 апреля, ср
ср1423:00+18всв34555 0.0 101661
02:00+16в22580 0.0 101524
05:00+14вюв226148 0.0 101523
08:00+18в1251100 0.0 1016161
11:00+23в123685 0.0 1014813
14:00+27св122847 0.0 10121469
17:00+28св2330100 0.0 10101075
20:00+21юв1241100 0.0 101111
15 апреля, чт
чт1523:00+20всв1141100 0.0 101111
02:00+19в1143100 0.0 101111
05:00+17в2243100 0.0 101112
08:00+20юв2244100 0.0 1012120
11:00+24ю2337100 0.0 1013604
14:00+25зюз3336100 0.0 1012909
17:00+25ююз2338100 0.0 10111000
20:00+20ю2350100 0.0 101233
16 апреля, пт
пт1623:00+18вюв2352100 0.0 101318
02:00+18в3353100 0.0 101219
05:00+16всв11613 0.0 101211
08:00+19вюв225646 0.0 1014181
11:00+24юз014239 0.0 1013987
14:00+27зсз3334100 0.0 10112067
17:00+27зсз3336100 0.0 1009703
20:00+21зюз1140100 0.0 101011
17 апреля, сб
сб1723:00+20в1143100 0.0 101011
02:00+19в1146100 0.0 100911
05:00+17вюв1150100 0.0 100911
08:00+21юв1148100 0.0 1011113
11:00+25юз2234100 0.0 1011904
14:00+28з342699 0.0 10102336
17:00+27з5626100 0.0 10101086
20:00+23зюз71325100 0.0 1013363